| time (UTC) | temp C | wind direction | speed KPH | gust KPH | rain 1hr cm | rain 24hr cm | rain mn cm | humidity % | barometer mb |
| 20260906150438 | 25 | 319 | 0.0 | 3.2 | 0.00 | 0.00 | 0.03 | ||
| 20260906143436 | 26 | 359 | 0.0 | 0.0 | 0.00 | 0.00 | 0.03 | ||
| 20260906141936 | 27 | 349 | 0.0 | 0.0 | 0.00 | 0.00 | 0.03 | ||
| 20260906140436 | 25 | 124 | 0.0 | 0.0 | 0.00 | 0.00 | 0.03 | ||
| 20260906134937 | 24 | 124 | 0.0 | 0.0 | 0.00 | 0.00 | 0.03 | ||
| 20260906133436 | 23 | 124 | 0.0 | 0.0 | 0.00 | 0.00 | 0.03 | ||
| 20260906130436 | 17 | 124 | 0.0 | 0.0 | 0.00 | 0.00 | 0.03 | ||
| 20260906123437 | 16 | 124 | 0.0 | 0.0 | 0.00 | 0.00 | 0.03 | ||
| 20260906120437 | 17 | 124 | 0.0 | 0.0 | 0.00 | 0.00 | 0.03 | ||
| 20260906113437 | 16 | 124 | 0.0 | 0.0 | 0.00 | 0.00 | 0.03 | ||
| 20260906111938 | 17 | 124 | 0.0 | 0.0 | 0.00 | 0.00 | 0.03 | ||
| 20260906110437 | 18 | 124 | 0.0 | 0.0 | 0.00 | 0.00 | 0.03 | ||
| 20260906104937 | 17 | 124 | 0.0 | 0.0 | 0.00 | 0.00 | 0.03 | ||
| 20260906103437 | 17 | 124 | 0.0 | 0.0 | 0.00 | 0.00 | 0.03 | ||
| 20260906101937 | 18 | 124 | 0.0 | 0.0 | 0.00 | 0.00 | 0.03 | ||
| 20260906100437 | 18 | 124 | 0.0 | 0.0 | 0.00 | 0.00 | 0.03 | ||
| 20260906094937 | 19 | 124 | 0.0 | 0.0 | 0.00 | 0.00 | 0.03 | ||
| 20260906093437 | 19 | 124 | 0.0 | 0.0 | 0.00 | 0.00 | 0.03 | ||
| 20260906090437 | 19 | 124 | 0.0 | 0.0 | 0.00 | 0.00 | 0.03 | ||
| 20260906083437 | 19 | 124 | 0.0 | 0.0 | 0.00 | 0.00 | 0.03 | ||
| 20260906081937 | 20 | 124 | 0.0 | 0.0 | 0.00 | 0.00 | 0.03 | ||
| 20260906080437 | 20 | 124 | 0.0 | 0.0 | 0.00 | 0.00 | 0.03 | ||
| 20260906074937 | 21 | 124 | 0.0 | 0.0 | 0.00 | 0.00 | 0.03 | ||
| 20260906073437 | 20 | 124 | 0.0 | 0.0 | 0.00 | 0.00 | 0.03 | ||
| 20260906071937 | 20 | 124 | 0.0 | 0.0 | 0.00 | 0.00 | 0.03 | ||
| 20260906070437 | 19 | 124 | 0.0 | 0.0 | 0.00 | 0.00 | 0.03 | ||
| 20260906064937 | 20 | 124 | 0.0 | 0.0 | 0.00 | 0.00 | 0.03 | ||
| 20260906063437 | 20 | 124 | 0.0 | 0.0 | 0.00 | 0.00 | 0.03 | ||
| 20260906061937 | 20 | 124 | 0.0 | 0.0 | 0.00 | 0.00 | 0.03 | ||
| 20260906060437 | 20 | 124 | 0.0 | 0.0 | 0.00 | 0.00 | 0.03 | ||
| 20260906054937 | 19 | 124 | 0.0 | 0.0 | 0.00 | 0.00 | 0.03 | ||
| 20260906053437 | 19 | 124 | 0.0 | 0.0 | 0.00 | 0.00 | 0.03 | ||
| 20260906051937 | 19 | 124 | 0.0 | 0.0 | 0.00 | 0.00 | 0.03 | ||
| 20260906050437 | 20 | 124 | 0.0 | 0.0 | 0.00 | 0.00 | 0.03 | ||
| 20260906044937 | 19 | 124 | 0.0 | 0.0 | 0.00 | 0.00 | 0.03 | ||
| 20260906043437 | 20 | 124 | 0.0 | 0.0 | 0.00 | 0.00 | 0.03 | ||
| 20260906040436 | 20 | 111 | 0.0 | 0.0 | 0.00 | 0.00 | 0.03 | ||
| 20260906033436 | 20 | 111 | 0.0 | 0.0 | 0.00 | 0.00 | 0.03 | ||
| 20260906030435 | 20 | 111 | 0.0 | 0.0 | 0.00 | 0.00 | 0.03 | ||
| 20260906023435 | 20 | 111 | 0.0 | 0.0 | 0.00 | 0.00 | 0.03 | ||
| 20260906020435 | 20 | 111 | 0.0 | 0.0 | 0.00 | 0.00 | 0.03 | ||
| 20260906014935 | 21 | 111 | 0.0 | 0.0 | 0.00 | 0.00 | 0.03 | ||
| 20260906013432 | 23 | 111 | 0.0 | 0.0 | 0.00 | 0.00 | 0.03 | ||
| 20260906011932 | 24 | 111 | 0.0 | 0.0 | 0.00 | 0.00 | 0.03 | ||
| 20260906010432 | 27 | 111 | 0.0 | 0.0 | 0.00 | 0.00 | 0.03 | ||
| 20260906004931 | 28 | 153 | 0.0 | 3.2 | 0.00 | 0.00 | 0.03 | ||
| 20260906003431 | 27 | 51 | 0.0 | 0.0 | 0.00 | 0.00 | 0.03 | ||
| 20260906001930 | 26 | 136 | 4.8 | 3.2 | 0.00 | 0.00 | 0.03 | ||
| 20260905230429 | 26 | 128 | 6.4 | 6.4 | 0.00 | 0.00 | 0.03 | ||
| 20260905224928 | 29 | 53 | 11.3 | 4.8 | 0.00 | 0.00 | 0.03 | ||
| 20260905221928 | 30 | 83 | 9.7 | 9.7 | 0.03 | 0.00 | 0.03 | ||
| 20260905211924 | 28 | 51 | 9.7 | 8.0 | 0.00 | 0.00 | 0.03 | ||
| 20260905210423 | 30 | 332 | 0.0 | 0.0 | 0.00 | 0.00 | 0.00 | ||
| 20260905204922 | 31 | 260 | 3.2 | 1.6 | 0.00 | 0.00 | 0.00 | ||
| 20260905203422 | 31 | 8 | 4.8 | 3.2 | 0.00 | 0.00 | 0.00 | ||
| 20260905201921 | 32 | 319 | 1.6 | 3.2 | 0.00 | 0.00 | 0.00 | ||
| 20260905200421 | 31 | 321 | 1.6 | 4.8 | 0.00 | 0.00 | 0.00 | ||
| 20260905193419 | 30 | 342 | 3.2 | 6.4 | 0.00 | 0.00 | 0.00 | ||
| 20260905191919 | 31 | 34 | 1.6 | 0.0 | 0.00 | 0.00 | 0.00 | ||
| 20260905190418 | 30 | 335 | 1.6 | 6.4 | 0.00 | 0.00 | 0.00 | ||
| 20260905181917 | 30 | 359 | 8.0 | 9.7 | 0.00 | 0.00 | 0.00 | ||
| 20260905174916 | 30 | 330 | 3.2 | 1.6 | 0.00 | 0.00 | 0.00 | ||
| 20260905173416 | 30 | 235 | 3.2 | 4.8 | 0.00 | 0.00 | 0.00 | ||
| 20260905171916 | 31 | 13 | 3.2 | 4.8 | 0.00 | 0.00 | 0.00 | ||
| 20260905170415 | 30 | 248 | 3.2 | 0.0 | 0.00 | 0.00 | 0.00 | ||
| 20260905164915 | 29 | 10 | 0.0 | 0.0 | 0.00 | 0.00 | 0.00 | ||
| 20260905163415 | 29 | 359 | 0.0 | 1.6 | 0.00 | 0.00 | 0.00 | ||
| 20260905154914 | 28 | 297 | 0.0 | 0.0 | 0.00 | 0.00 | 0.00 | ||
| 20260905153414 | 28 | 314 | 0.0 | 0.0 | 0.00 | 0.00 | 0.00 | ||
| 20260905151913 | 28 | 284 | 0.0 | 0.0 | 0.00 | 0.00 | 0.00 |